Regional Weather Roundup
Issued by NWS

Home | Current Version | Previous Version | Graphics & Text | Print | Product List | Glossary On
Versions: 1 2 3 4 5 6 7 8 9 10 11 12 13 14 15 16 17 18 19 20 21 22 23 24 25 26 27 28 29 30 31 32 33 34 35 36 37 38 39 40 41 42 43 44 45 46 47 48 49 50
000
ASUS43 KIND 201909
RWRIN

WEATHER ROUNDUP FOR INDIANA
NATIONAL WEATHER SERVICE INDIANAPOLIS IN
200 PM EST TUE FEB 20 2018

NOTE: "FAIR" INDICATES FEW OR NO CLOUDS BELOW 12,000 FEET WITH NO
SIGNIFICANT WEATHER AND/OR OBSTRUCTIONS TO VISIBILITY.

* - STATION DOES NOT REPORT WEATHER SUCH AS PRECIPITATION OR FOG.

+ - STATION NOT QUALITY CONTROLLED BY THE NATIONAL WEATHER SERVICE.
    USE DATA WITH CAUTION...ESPECIALLY DEWPOINT AND RELATIVE
    HUMIDITY OBSERVATIONS.

INZ001>003-010>013-019-020-202000-
NORTHWEST INDIANA

CITY           SKY/WX    TMP DP  RH WIND       PRES   REMARKS
GARY /AIRPORT/ CLOUDY    66  61  82 SW18G39   29.86F
LA PORTE +     RAIN      62  60  94 SW22      29.91F
MICHIGAN CITY+ LGT RAIN  61  61 100 S15G22    29.89F
MONTICELLO +   RAIN      63  62  94 SW18G26   29.94F
RENSSELAER +   DRIZZLE   63  57  82 S21G29    29.92F

$$

LMZ046-743>745-202000-
SOUTHERN LAKE MICHIGAN

STATION/POSITION TIME  TEMP    WIND        PRES    WAVE
                       AIR SEA DIR/SP/G            HT
                 (UTC) (F)     (DEG/KT/KT) (MB)    (FT)
BURNS HARBOR     1840   62     200/ 22/ 28 1011.9F
MICHIGAN CITY    1840   62     180/ 20/ 24   N/A

$$

INZ004-005-014>016-021>024-202000-
NORTH CENTRAL INDIANA

CITY           SKY/WX    TMP DP  RH WIND       PRES   REMARKS
ELKHART        RAIN      61  59  94 S12G25    29.93F FOG
GOSHEN         LGT RAIN  62  60  93 MISG      29.94F FOG
LOGANSPORT +   LGT RAIN  63  59  88 S16       29.97F
PERU/GRISSOM   PTSUNNY   66  66 100 SW17G24   29.97F
ROCHESTER +    PTSUNNY   64  61  88 SW14G25   29.96F
SOUTH BEND     RAIN      62  60  93 SW22G33   29.93S FOG
WARSAW +       LGT RAIN  61  59  94 S12G18    29.96F

$$

INZ006>009-017-018-025>027-202000-
NORTHEAST INDIANA

CITY           SKY/WX    TMP DP  RH WIND       PRES   REMARKS
AUBURN +       RAIN      61  59  94 S12       30.00F
FORT WAYNE     LGT RAIN  65  61  87 S10       30.00F
HUNTINGTON +   CLOUDY    64  61  92 SW13G18   29.99F
KENDALLVILLE + LGT RAIN  61  60  96 SW18G25   29.98F

$$

INZ028-029-035-036-043>045-051>053-202000-
WEST CENTRAL INDIANA

CITY           SKY/WX    TMP DP  RH WIND       PRES   REMARKS
CRAWFORDSVL +  CLOUDY    67  59  77 S20G25    29.99F
GREENCASTLE +  PTSUNNY   72  55  56 SW13G24   30.02F
LAFAYETTE      LGT RAIN  66  61  84 S17G25    29.95F
TERRE HAUTE    PTSUNNY   73  59  61 S26G33    30.00F

$$

INZ030>032-037>040-046>048-054>057-064-065-202000-
CENTRAL INDIANA

CITY           SKY/WX    TMP DP  RH WIND       PRES   REMARKS
ANDERSON       PTSUNNY   73  55  53 S23G31    30.04F
COLUMBUS       PTSUNNY   75  48  38 S18G25    30.06F
FISHERS *+     CLOUDY    72  61  68 SW20G26   30.02F
FRANKFORT +    PTSUNNY   70  62  74 SW22G29   30.01F
GREENWOOD *+   FAIR      73 -26   2 SW22G35   30.05F
INDIANAPOLIS   PTSUNNY   77  55  46 SW23G32   30.02F
-EAGLE CREEK   CLOUDY    74  55  51 SW20G38   30.01F
KOKOMO +       PTSUNNY   69  59  70 SW22G28   30.00F
MARION +       CLOUDY    68  58  70 SW23G31   30.01F HAZE
MT COMFORT *+  PTSUNNY   73  61  64 SW26G40   30.04F
SHELBYVILLE    PTSUNNY   76  54  46 SW26G40   30.04F
ZIONSVILLE +   PTSUNNY   71  58  64 SW24G38   30.02F

$$

INZ033-034-041-042-049-050-058-059-202000-
EAST CENTRAL INDIANA

CITY           SKY/WX    TMP DP  RH WIND       PRES   REMARKS
MUNCIE         PTSUNNY   75  55  49 SW25G39   30.01F
RICHMOND +     FAIR      70  55  60 SW24G33   30.09F

$$

INZ060-061-067>069-081>083-085>088-202000-
SOUTHWEST INDIANA

CITY           SKY/WX    TMP DP  RH WIND       PRES   REMARKS
EVANSVILLE     FAIR      75  57  53 S17G29    30.06F
HUNTINGBURG +  FAIR      76  58  53 S28G33    30.07F
WASHINGTON +   FAIR      74  55  50 SW24G30   30.04F

$$

INZ062-063-066-070>080-084-089>092-202000-
SOUTH CENTRAL AND SOUTHEAST INDIANA

CITY           SKY/WX    TMP DP  RH WIND       PRES   REMARKS
BATESVILLE +   SUNNY     73  55  53 MISG      30.08F
BEDFORD +      FAIR      75  52  43 SW17G35   30.07F
BLOOMINGTON    PTSUNNY   75  56  51 SW18G36   30.04F
FRENCH LICK *+ FAIR      73  46  38 S15G24    30.08F
MADISON *+     FAIR      77  52  41 S25G32    30.12F
NORTH VERNON + FAIR      72  54  53 S23G37    30.10
SEYMOUR +      FAIR      77  55  47 SW20G25   30.08F

$$




USA.gov is the U.S. government's official web portal to all federal, state and local government web resources and services.